Startpagina
METAR-TAF:

METAR-TAF

Vliegvelden :

Productieplatform

L9-ff-1, Nederland

breedte: 53-36-52N, lengte: 4-57-37E, hoogte: 30 m

Actueel weer

Dit bericht is 37 minuten geleden gemaakt, om 12:25 UTC
Wind 25 kt uit het zuidzuidwesten
Temperatuur 15°C
Vochtigheid 77%
Druk 1003 hPa
Zicht 10 km of meer
Weinig wolken op 1600 ft

METAR: EHMG 161225Z AUTO 21025KT 9999 FEW016 15/11 Q1003

Tijdstip: 15:02 (13:02 UTC)


TAF: ontbreekt

Waarnemingen en weersverwachtingen van meer dan 4000 vliegvelden (METAR en TAF).

De beschikbare stations zijn de gele en rode punten op de kaart.

Ga met uw muis naar het station om de naam te zien.

Klik dan om waarnemingen en weersverwachtingen te zien.

kaart wijzigen: klik op de groene knoppen met een zwart kruis om in te zoomen, op de groene knop met een streepje om uit te zoomen of op de groene pijlen voor aangrenzende kaarten.


METAR-TAF: